TimeMDT,TemperatureF,Dew PointF,Humidity,Sea Level PressureIn,VisibilityMPH,Wind Direction,Wind SpeedMPH,Gust SpeedMPH,PrecipitationIn,Events,Conditions,WindDirDegrees,DateUTC
12:53 AM,27.0,9.0,47,30.10,10.0,SSW,3.5,-,N/A,,Clear,200,2012-10-31 06:53:00
1:53 AM,30.0,12.0,47,30.09,10.0,Calm,Calm,-,N/A,,Clear,0,2012-10-31 07:53:00
2:53 AM,28.0,10.9,49,30.09,10.0,South,3.5,-,N/A,,Clear,180,2012-10-31 08:53:00
3:53 AM,26.1,10.0,51,30.10,10.0,Calm,Calm,-,N/A,,Clear,0,2012-10-31 09:53:00
4:53 AM,25.0,10.0,53,30.11,10.0,Calm,Calm,-,N/A,,Clear,0,2012-10-31 10:53:00
5:53 AM,25.0,10.0,53,30.13,10.0,Calm,Calm,-,N/A,,Clear,0,2012-10-31 11:53:00
7:53 AM,23.0,9.0,55,30.21,10.0,Calm,Calm,-,N/A,,Clear,0,2012-10-31 13:53:00
8:53 AM,30.0,10.9,45,30.23,10.0,Calm,Calm,-,N/A,,Clear,0,2012-10-31 14:53:00
9:53 AM,-9999,-9999,N/A,30.30,-9999.0,North,-9999.0,-,N/A,,Clear,0,2012-10-31 15:53:00
10:53 AM,54.0,15.1,22,30.14,10.0,Calm,Calm,-,N/A,,Clear,0,2012-10-31 16:53:00
11:53 AM,60.1,14.0,16,30.12,10.0,Variable,3.5,-,N/A,,Clear,0,2012-10-31 17:53:00
12:53 PM,64.0,12.9,14,30.10,10.0,Calm,Calm,-,N/A,,Clear,0,2012-10-31 18:53:00
1:53 PM,66.0,12.9,13,30.06,10.0,Variable,4.6,-,N/A,,Clear,0,2012-10-31 19:53:00
2:53 PM,68.0,12.9,12,30.03,10.0,Calm,Calm,-,N/A,,Clear,0,2012-10-31 20:53:00
3:53 PM,66.9,12.9,12,30.03,10.0,WSW,3.5,-,N/A,,Clear,250,2012-10-31 21:53:00
4:53 PM,68.0,12.0,11,30.02,10.0,ENE,3.5,-,N/A,,Clear,70,2012-10-31 22:53:00
5:53 PM,64.0,10.9,13,30.04,10.0,WNW,11.5,-,N/A,,Clear,290,2012-10-31 23:53:00
6:53 PM,55.9,15.1,20,30.12,10.0,ENE,3.5,-,N/A,,Clear,60,2012-11-01 00:53:00
7:53 PM,51.1,14.0,23,30.15,10.0,Calm,Calm,-,N/A,,Clear,0,2012-11-01 01:53:00
8:53 PM,41.0,12.9,32,30.17,10.0,SSW,3.5,-,N/A,,Clear,200,2012-11-01 02:53:00
9:53 PM,34.0,10.9,38,30.24,10.0,South,3.5,-,N/A,,Clear,180,2012-11-01 03:53:00
10:53 PM,33.1,10.0,38,30.11,10.0,Calm,Calm,-,N/A,,Clear,0,2012-11-01 04:53:00
11:53 PM,33.1,10.9,40,30.09,10.0,Calm,Calm,-,N/A,,Clear,0,2012-11-01 05:53:00